Regional Weather Roundup
Issued by NWS Charleston, SC

Current Version | Previous Version | Text Only | Print | Product List | Glossary Off
Versions: 1 2 3 4 5 6 7 8 9 10 11 12 13 14 15 16 17 18 19 20 21 22 23 24 25 26 27 28 29 30 31 32 33 34 35 36 37 38 39 40 41 42 43 44 45 46 47 48 49 50

000
ASUS42 KCHS 241328
RWRCHS

REGIONAL WEATHER ROUNDUP
NATIONAL WEATHER SERVICE CHARLESTON SC
900 AM EDT TUE MAY 24 2016

NOTE: "FAIR" INDICATES FEW OR NO CLOUDS BELOW 12,000 FEET WITH NO
SIGNIFICANT WEATHER AND/OR OBSTRUCTIONS TO VISIBILITY.

NOT ALL STATIONS ARE QUALITY CONTROLLED. USE DATA WITH CAUTION...
ESPECIALLY DEWPOINT OBSERVATIONS.

SCZ027-030-031-034>040-042>050-241400-
...SOUTHEAST SOUTH CAROLINA...

CITY           SKY/WX    TMP DP  RH WIND       PRES   REMARKS
N CHARLESTON   PTSUNNY   72  53  51 CALM      30.16R
WATERFRONT PRK   N/A     71  55  56 VRB2      30.13R
MOUNT PLEASANT FAIR      72  54  53 CALM      30.16R
JOHNS ISLAND   FAIR      72  55  56 CALM      30.16R
PINOPOLIS        N/A     73  57  56 VRB2      30.06R
MONCKS CORNER  FAIR      68  48  49 CALM      30.16R
SUMMERVILLE    PTSUNNY   68  59  73 CALM      30.18R
BEAUFORT MCAS  CLOUDY    69  60  73 NE5       30.15R
BEAUFORT ARPT  FAIR      72  57  60 NE6       30.15R
HILTON HEAD IS NOT AVBL
WALTERBORO     MOSUNNY   72  54  53 E3        30.17S
ALLENDALE      FAIR      70  55  60 VRB5      30.15S

...SOUTHERN MIDLANDS AND PEE DEE...

CITY           SKY/WX    TMP DP  RH WIND       PRES   REMARKS
GEORGETOWN     FAIR      68  54  60 CALM      30.17R
KINGSTREE      FAIR      66  54  63 SW6       30.17R
ORANGEBURG     MOSUNNY   69  57  65 CALM      30.16R
BARNWELL       FAIR      72  59  64 CALM      30.17R
AIKEN          FAIR      70  54  56 S7        30.19R
MANNING        FAIR      66  57  72 SW3       30.17R
COLUMBIA       MOSUNNY   67  56  67 CALM      30.16R
SUMTER         NOT AVBL
FLORENCE       SUNNY     66  55  67 W5        30.16R
MYRTLE BEACH   NOT AVBL
N MYRTLE BEACH SUNNY     66  56  70 NW3       30.15R

$$

GAZ063-065-086>088-099>101-113>116-118-119-134>141-150-241400-
...SOUTHEAST GEORGIA...

CITY           SKY/WX    TMP DP  RH WIND       PRES   REMARKS
SAVANNAH ARPT  MOSUNNY   73  62  68 NE3       30.14R
HUNTER AAF     NOT AVBL
FORT STEWART   NOT AVBL
STATESBORO     SUNNY     72  64  74 SE3       30.15R
SYLVANIA       SUNNY     73  61  66 SE3       30.16R
CLAXTON        FAIR      72  65  79 CALM      30.14S

...CSRA...CENTRAL AND FAR SOUTHEAST GEORGIA...

CITY           SKY/WX    TMP DP  RH WIND       PRES   REMARKS
THOMSON        SUNNY     71  60  67 SE8       30.19R
AUGUSTA-BUSH   SUNNY     66  57  72 CALM      30.14R
AUGUSTA-DANIEL SUNNY     69  54  58 SE7       30.15R
SWAINSBORO     FAIR      72  59  64 SW6       30.15R
VIDALIA        SUNNY     72  59  64 CALM      30.15R
EASTMAN        FAIR      71  62  71 CALM      30.16S
HAZLEHURST     FAIR      74  59  59 CALM      30.13R
ALMA           SUNNY     70  60  70 SW5       30.12R
WAYCROSS       SUNNY     75  61  61 SW6       30.13R
JESUP          FAIR      70  61  73 CALM      30.14R
BAXLEY         FAIR      73  61  64 CALM      30.13R
BRUNSWICK      SUNNY     77  63  61 CALM      30.14R
SAINT SIMONS   SUNNY     76  64  66 CALM      30.12R

$$

SCZ027-028-034-036>038-045-046-048>050-GAZ119-141-241400-
...LAKE AND SUPPLEMENTAL COASTAL OBSERVATIONS...

STATION/POSITION TIME  TEMP    WIND        PRES    WAVE   SWELL
                       AIR SEA DIR/SP/G            HT/PER HT/PER/DIR
                 (UTC) (F)     (DEG/KT/KT) (MB)    (FT/S) (FT/S/D)
WINYAH BAY       1200   62     320/  5     1019.0R
LAKE MURRAY      1200   66     210/  4/  5 1020.0R
ACE BASIN NERRS  1200   68      30/  1     1020.0R
FORT PULASKI     1300   73 75   70/  9/ 11 1020.9R
SAPELO ISLAND    1300   77     340/  4     1020.0S

$$

ANZ835-935-AMZ111-154-330-350-352-354-370-450-454-472-241400-
...C-MAN AND BUOY OBSERVATIONS...

STATION/POSITION TIME  TEMP    WIND        PRES    WAVE   SWELL
                       AIR SEA DIR/SP/G            HT/PER HT/PER/DIR
                 (UTC) (F)     (DEG/KT/KT) (MB)    (FT/S) (FT/S/D)
BUOY 41004       1250   71 75   30/  4/  6 1020.5R   2/ 9   2/ 9
BUOY 41008       1250   76 76   70/  4/  6 1020.1R   2/ 9   2/110/ 9
FOLLY BEACH CMAN 1300   71      40/  3/  5 1021.4R
CAPERS NEARSHORE 1308   71 74   90/  2/  4 1021.1R
FRIPP NEARSHORE  1308   73 74   60/  8/ 10 1020.1R


STATION/POSITION TIME  TEMP    WIND        PRES    WAVE   SWELL
                       AIR SEA DIR/SP/G            HT/PER HT/PER/DIR
                 (UTC) (F)     (DEG/KT/KT) (MB)    (FT/S) (FT/S/D)
5E ST. MARYS GA  1221      77                N/A     2/ 9
FRYING PAN BUOY  1300   69 76  320/  8/ 10 1020.5R
BUOY 41025       1250   65 67  290/ 12/ 16 1018.8R   4/11   3/ 90/11
CAPE LOOKOUT NC  1300   68     290/  7/  9 1019.5R
BUOY 41002       1250   73 77  310/  6/ 10 1019.0R   4/ 6   3/360/ 6
BUOY 41010       1220   77 78   60/  4/  6 1019.1R
ST AUGUSTINE FL  1300   77 78  120/  7/  8 1020.5R


$$



USA.gov is the U.S. government's official web portal to all federal, state and local government web resources and services.